YV4200 SVCS-SVHG

Flight info

Callsign YV4200
Flight time 0h 22m
Altitude 5500
Route GUTUX1 PAUJI
Aircraft EC35/L-SDFGRY/C

Departure

Time 2026-04-14 21:28
Airport Caracas Óscar Machado Zuloaga International Airport (SVCS)

Arrival

Time 2026-04-14 21:50
Airport Higuerote Airport (SVHG)
Time Latitude Longitude Altitude Speed Heading
2026-04-14 21:14 10.28807 -66.81979 2162 ft 0 kts 249°
2026-04-14 21:26 10.28807 -66.81980 2182 ft 1 kts 276°
2026-04-14 21:26 10.28777 -66.81985 2195 ft 8 kts 130°
2026-04-14 21:27 10.28753 -66.81879 2219 ft 31 kts 91°
2026-04-14 21:27 10.28723 -66.81533 2269 ft 64 kts 88°
2026-04-14 21:27 10.28760 -66.81046 2380 ft 77 kts 68°
2026-04-14 21:27 10.29094 -66.80549 2511 ft 95 kts 41°
2026-04-14 21:28 10.29640 -66.80053 2573 ft 110 kts 36°
2026-04-14 21:28 10.30145 -66.79439 2665 ft 115 kts 49°
2026-04-14 21:28 10.30552 -66.78822 3007 ft 100 kts 53°
2026-04-14 21:28 10.30940 -66.78193 3146 ft 106 kts 55°
2026-04-14 21:29 10.31351 -66.77535 3288 ft 115 kts 53°
2026-04-14 21:29 10.31781 -66.76872 3587 ft 106 kts 56°
2026-04-14 21:29 10.32177 -66.76188 3737 ft 114 kts 60°
2026-04-14 21:29 10.32547 -66.75456 3873 ft 120 kts 60°
2026-04-14 21:30 10.32895 -66.74729 4166 ft 115 kts 64°
2026-04-14 21:30 10.33247 -66.73947 4261 ft 125 kts 66°
2026-04-14 21:30 10.33548 -66.73136 4522 ft 120 kts 69°
2026-04-14 21:30 10.33809 -66.72331 4643 ft 121 kts 70°
2026-04-14 21:31 10.34122 -66.71546 4753 ft 118 kts 67°
2026-04-14 21:31 10.34483 -66.70752 4814 ft 127 kts 64°
2026-04-14 21:31 10.34857 -66.69939 4976 ft 126 kts 64°
2026-04-14 21:31 10.35188 -66.69141 5187 ft 124 kts 68°
2026-04-14 21:32 10.35389 -66.68313 5441 ft 119 kts 80°
2026-04-14 21:32 10.35422 -66.67467 5527 ft 124 kts 92°
2026-04-14 21:32 10.35163 -66.66647 5592 ft 121 kts 120°
2026-04-14 21:32 10.34685 -66.65951 5599 ft 135 kts 114°
2026-04-14 21:33 10.34635 -66.64982 5378 ft 149 kts 59°
2026-04-14 21:33 10.35246 -66.64151 5426 ft 141 kts 55°
2026-04-14 21:33 10.35684 -66.63367 5788 ft 118 kts 68°
2026-04-14 21:33 10.35983 -66.62580 5960 ft 125 kts 72°
2026-04-14 21:34 10.36172 -66.61716 6125 ft 126 kts 82°
2026-04-14 21:34 10.36258 -66.60842 6326 ft 124 kts 86°
2026-04-14 21:34 10.36300 -66.59970 6524 ft 124 kts 89°
2026-04-14 21:34 10.36342 -66.59081 6661 ft 127 kts 86°
2026-04-14 21:35 10.36434 -66.58177 6775 ft 131 kts 84°
2026-04-14 21:35 10.36656 -66.57270 6887 ft 131 kts 75°
2026-04-14 21:35 10.36908 -66.56359 6971 ft 132 kts 77°
2026-04-14 21:35 10.37055 -66.55429 7097 ft 128 kts 81°
2026-04-14 21:36 10.37155 -66.54529 7210 ft 130 kts 86°
2026-04-14 21:36 10.37181 -66.53644 7395 ft 127 kts 88°
2026-04-14 21:36 10.37142 -66.52731 7465 ft 131 kts 95°
2026-04-14 21:36 10.37065 -66.51808 7574 ft 134 kts 89°
2026-04-14 21:37 10.37171 -66.50882 7689 ft 131 kts 77°
2026-04-14 21:37 10.37368 -66.49985 7797 ft 129 kts 79°
2026-04-14 21:37 10.37482 -66.49058 7836 ft 133 kts 83°
2026-04-14 21:37 10.37564 -66.48119 7914 ft 135 kts 85°
2026-04-14 21:38 10.37660 -66.47158 7948 ft 139 kts 81°
2026-04-14 21:38 10.37863 -66.46126 7714 ft 154 kts 74°
2026-04-14 21:38 10.38174 -66.45079 7594 ft 157 kts 69°
2026-04-14 21:38 10.38561 -66.44022 7423 ft 161 kts 67°
2026-04-14 21:39 10.38935 -66.42988 7433 ft 153 kts 71°
2026-04-14 21:39 10.39296 -66.41961 7336 ft 156 kts 68°
2026-04-14 21:39 10.39697 -66.40937 7256 ft 157 kts 66°
2026-04-14 21:39 10.40125 -66.39892 7135 ft 159 kts 67°
2026-04-14 21:40 10.40556 -66.38856 7047 ft 159 kts 65°
2026-04-14 21:40 10.40983 -66.37837 7006 ft 157 kts 65°
2026-04-14 21:40 10.41435 -66.36830 6931 ft 156 kts 65°
2026-04-14 21:40 10.41845 -66.35821 6901 ft 151 kts 70°
2026-04-14 21:41 10.42200 -66.34845 6952 ft 147 kts 70°
2026-04-14 21:41 10.42560 -66.33824 6767 ft 158 kts 69°
2026-04-14 21:41 10.42904 -66.32763 6643 ft 162 kts 70°
2026-04-14 21:41 10.43280 -66.31682 6483 ft 161 kts 71°
2026-04-14 21:42 10.43655 -66.30601 6332 ft 164 kts 69°
2026-04-14 21:42 10.44057 -66.29529 6237 ft 162 kts 68°
2026-04-14 21:42 10.44505 -66.28477 6085 ft 162 kts 64°
2026-04-14 21:42 10.44984 -66.27442 5943 ft 162 kts 64°
2026-04-14 21:43 10.45442 -66.26401 5818 ft 160 kts 67°
2026-04-14 21:43 10.45845 -66.25337 5679 ft 161 kts 70°
2026-04-14 21:43 10.46191 -66.24280 5607 ft 156 kts 70°
2026-04-14 21:43 10.46558 -66.23243 5452 ft 158 kts 69°
2026-04-14 21:44 10.46916 -66.22185 5307 ft 157 kts 71°
2026-04-14 21:44 10.47225 -66.21117 5131 ft 160 kts 72°
2026-04-14 21:44 10.47527 -66.20035 5018 ft 158 kts 72°
2026-04-14 21:44 10.47872 -66.18964 4873 ft 158 kts 69°
2026-04-14 21:45 10.48272 -66.17926 4614 ft 161 kts 64°
2026-04-14 21:45 10.48863 -66.16897 3969 ft 174 kts 52°
2026-04-14 21:45 10.49673 -66.15985 3550 ft 172 kts 43°
2026-04-14 21:45 10.50540 -66.15158 3169 ft 169 kts 40°
2026-04-14 21:46 10.51362 -66.14331 2831 ft 166 kts 40°
2026-04-14 21:46 10.52197 -66.13542 2234 ft 162 kts 36°
2026-04-14 21:46 10.52985 -66.12805 1896 ft 144 kts 38°
2026-04-14 21:46 10.53569 -66.12039 1585 ft 133 kts 52°
2026-04-14 21:47 10.53956 -66.11205 1302 ft 128 kts 62°
2026-04-14 21:47 10.54202 -66.10372 1069 ft 122 kts 67°
2026-04-14 21:47 10.54373 -66.09552 909 ft 110 kts 74°
2026-04-14 21:47 10.54453 -66.08786 817 ft 108 kts 77°
2026-04-14 21:48 10.54528 -66.08045 756 ft 101 kts 71°
2026-04-14 21:48 10.54733 -66.07375 671 ft 98 kts 58°
2026-04-14 21:48 10.55006 -66.06773 672 ft 93 kts 54°
2026-04-14 21:48 10.55340 -66.06188 576 ft 97 kts 59°
2026-04-14 21:49 10.55367 -66.05565 699 ft 91 kts 102°
2026-04-14 21:49 10.54946 -66.05093 685 ft 94 kts 157°
2026-04-14 21:49 10.54255 -66.05158 541 ft 105 kts 201°
2026-04-14 21:49 10.53852 -66.05636 639 ft 80 kts 262°
2026-04-14 21:50 10.53952 -66.06153 523 ft 70 kts 300°
2026-04-14 21:50 10.54267 -66.06525 351 ft 73 kts 327°
2026-04-14 21:50 10.54529 -66.06866 348 ft 58 kts 292°
2026-04-14 21:50 10.54668 -66.07171 318 ft 38 kts 320°
2026-04-14 21:51 10.54873 -66.07262 247 ft 29 kts 351°
2026-04-14 21:51 10.55043 -66.07210 225 ft 26 kts 28°
2026-04-14 21:51 10.55096 -66.07040 231 ft 26 kts 73°
2026-04-14 21:51 10.55026 -66.06908 193 ft 15 kts 78°
2026-04-14 21:52 10.55022 -66.06844 151 ft 5 kts 58°
2026-04-14 21:52 10.55020 -66.06821 127 ft 1 kts 52°
2026-04-14 21:52 10.55027 -66.06814 100 ft 3 kts 46°
2026-04-14 21:52 10.55040 -66.06807 40 ft 1 kts 47°
2026-04-14 21:53 10.55052 -66.06796 38 ft 4 kts 135°
2026-04-14 21:53 10.55051 -66.06792 33 ft 0 kts 180°
2026-04-14 21:56 10.55052 -66.06792 34 ft 0 kts 179°
2026-04-14 21:59 10.55047 -66.06796 48 ft 3 kts 234°
2026-04-14 21:59 10.55041 -66.06822 134 ft 8 kts 285°
2026-04-14 22:00 10.55128 -66.07007 268 ft 50 kts 277°
2026-04-14 22:00 10.54954 -66.07424 361 ft 80 kts 224°
2026-04-14 22:00 10.54433 -66.07806 451 ft 96 kts 207°
2026-04-14 22:00 10.53855 -66.08147 563 ft 101 kts 211°
2026-04-14 22:01 10.53201 -66.08481 699 ft 104 kts 199°
2026-04-14 22:01 10.52556 -66.08792 795 ft 101 kts 204°
2026-04-14 22:01 10.51883 -66.09035 875 ft 104 kts 189°
2026-04-14 22:01 10.51186 -66.09199 975 ft 108 kts 189°
2026-04-14 22:02 10.50421 -66.09359 897 ft 115 kts 190°
2026-04-14 22:02 10.49622 -66.09535 743 ft 120 kts 188°
2026-04-14 22:02 10.48868 -66.09713 729 ft 98 kts 193°
2026-04-14 22:02 10.48230 -66.09901 650 ft 98 kts 194°
2026-04-14 22:03 10.47564 -66.10126 505 ft 104 kts 195°
2026-04-14 22:03 10.46910 -66.10361 439 ft 92 kts 195°
2026-04-14 22:03 10.46300 -66.10553 498 ft 87 kts 185°
2026-04-14 22:03 10.46015 -66.10217 418 ft 82 kts 85°
2026-04-14 22:04 10.46069 -66.09694 227 ft 57 kts 62°
2026-04-14 22:04 10.46174 -66.09476 61 ft 12 kts 28°
2026-04-14 22:04 10.46214 -66.09465 39 ft 11 kts 347°
2026-04-14 22:04 10.46271 -66.09480 33 ft 8 kts 347°
2026-04-14 22:05 10.46323 -66.09498 23 ft 6 kts 355°
2026-04-14 22:05 10.46347 -66.09484 26 ft 2 kts 43°
2026-04-14 22:05 10.46352 -66.09475 16 ft 0 kts 68°
2026-04-14 22:07 10.46351 -66.09475 16 ft 0 kts 67°